Regional Weather Roundup
Issued by NWS Jackson, KY

Home | Current Version | Previous Version | Graphics & Text | Print | Product List | Glossary On
Versions: 1 2 3 4 5 6 7 8 9 10 11 12 13 14 15 16 17 18 19 20 21 22 23 24 25 26 27 28 29 30 31 32 33 34 35 36 37 38 39 40 41 42 43 44 45 46 47 48 49 50
000
ASUS43 KJKL 312311
RWRJKL

EAST KENTUCKY HOURLY WEATHER ROUNDUP
NATIONAL WEATHER SERVICE JACKSON KY
700 PM EDT FRI OCT 31 2014

NOTE: "FAIR" INDICATES FEW OR NO CLOUDS BELOW 12,000 FEET WITH
NO SIGNIFICANT WEATHER AND/OR OBSTRUCTIONS TO VISIBILITY.

* THESE REPORTS ARE NOT UNDER NWS QUALITY CONTROL AND MAY NOT
  REPORT WEATHER SUCH AS PRECIPITATION AND FOG.

KYZ079-080-083-085-087-088-110-112-115-119-120-010000
...EASTERN KENTUCKY...

CITY           SKY/WX    TMP DP  RH WIND       PRES   REMARKS
JACKSON        FLURRIES  38  35  89 NW14G23   29.91R WCI  30
LONDON         LGT RAIN  38  34  85 NW15G23   29.97R WCI  29
SOMERSET*      LGT RAIN  36  34  93 N10G21    30.03R WCI  28
MONTICELLO*    LGT SNOW  37  37 100 NW5       30.04R FOG     WCI  34
WILLIAMSBURG*  CLOUDY    36  36 100 CALM      29.99
MIDDLESBORO*   LGT RAIN  41  37  83 NW20G29   29.94R
HARLAN APT*    CLOUDY    43  41  93 W16G23    29.88R
HAZARD APT*    LGT RAIN  39  39 100 NW14G26   29.92  WCI  31
BLACK MTN*       N/A     34  34 100 S3          N/A
PIKEVILLE APT* LGT RAIN  41  41 100 CALM      29.86
BIG SANDY*     RAIN      44  43  96 CALM      29.86S
MOREHEAD APT*  LGT RAIN  37  36  93 NW14G21   29.96R WCI  29
$$

KYZ035-036-041-042-044-050-067-078-099-010000
...CENTRAL KENTUCKY...

CITY           SKY/WX    TMP DP  RH WIND       PRES   REMARKS
MT STERLING*   LGT RAIN  36  36 100 NW8       29.98R WCI  29
FLEMING/MASON* LGT RAIN  37  36  93 W10       29.96R WCI  30
DANVILLE*      CLOUDY    36  34  93 NW7       30.00S WCI  30
RICHMOND*      CLOUDY    36  34  93 NW8       29.98S WCI  29
LEXINGTON      CLOUDY    40  34  79 NW12      29.98R WCI  33
FRANKFORT      CLOUDY    39  33  79 NW10G16   29.99S WCI  32
$$

KYZ091>093-OHZ055-061-077-WVZ005-015-034-035-042-010000
...SOUTHERN OHIO/WEST VIRGINIA...

CITY           SKY/WX    TMP DP  RH WIND       PRES   REMARKS
COVINGTON      CLOUDY    40  34  79 NW13      29.96R WCI  32
COLUMBUS       LGT RAIN  41  40  96 NW9       29.89R
DAYTON         LGT RAIN  41  39  93 NW7       29.94R
WILMINGTON     LGT RAIN  39  36  89 NW12      29.92R WCI  32
HUNTINGTON     LGT RAIN  43  43 100 S5        29.86S FOG
CHARLESTON     LGT RAIN  43  40  89 W5        29.87R FOG
PINEVILLE*     LGT RAIN  43  43  99 MISG      29.90S
BECKLEY        LGT RAIN  38  35  89 W6        29.83S FOG     WCI  33
BLUEFIELD      LGT RAIN  40  35  83 NW6       29.83S
$$

VAZ002-007-008-TNZ017-027-036-066-071-010000
...SOUTHWEST VIRGINIA/EAST TENNESSEE...

CITY           SKY/WX    TMP DP  RH WIND       PRES   REMARKS
WISE*          LGT RAIN  41  41 100 CALM      29.84S
JONESVILLE*    LGT RAIN  45  45 100 SW3       29.89S
ABINGDON*      DRIZZLE   44  42  95 CALM      29.85S
BRISTOL        LGT RAIN  45  43  93 W7        29.86S
KNOXVILLE      LGT RAIN  48  43  82 W9        29.90S
OAK RIDGE      CLOUDY    45  38  76 NW10G16   29.97R
CROSSVILLE     LGT SNOW  35  31  85 NW17G28   30.01R FOG     WCI  25
NASHVILLE      MOCLDY    43  25  49 NW18G28   30.12R
$$

...KEY TO REMARKS...
VSB - VISIBILITY IN MILES
WCI - WIND CHILL INDEX
HX  - HEAT INDEX

$$



USA.gov is the U.S. government's official web portal to all federal, state and local government web resources and services.